Tracking 17138 objects as of 7-July-2015
HD Live streaming from Space Station

CRRES DEB (CANISTER)

Track CRRES DEB (CANISTER) now!
CRRES DEB (CANISTER) is classified as:


NORAD ID: 27051
Int'l Code: 1990-065U
Perigee: 323.3 km
Apogee: 30,348.6 km
Inclination: 17.9 °
Period: 530.5 minutes
Semi major axis: 21706 km
RCS: 0.1304 m2 (medium)
Launch date: July 25, 1990
Source: United States (US)

Note: This is SATELLITE DEBRIS
Your satellite tracking list
Your tracking list is empty





NASA's NSSDC Master Catalog

Two Line Element Set (TLE):
1 27051U 90065U   15187.44045227  .00001286  00000-0  97300-3 0  9994
2 27051 017.9334 212.1848 6916049 303.3926 008.5207 02.71458757149968

Source of the keplerian elements: AFSPC

N2YO: 403